Marshfield, WI

5:56 AM CST on November 13, 2019 (GMT -0600)
Marshfield Municipal

Weather History for KMFI - September, 2019

Change the Weather History Date:

Wednesday, September 25, 2019

  Actual Average Record
Temperature  
Mean Temperature 60 °F -  
Max Temperature 68 °F 65 °F 88 °F (1920)
Min Temperature 50 °F 40 °F 23 °F (1942)
Degree Days  
Heating Degree Days 6    
Growing Degree Days 10 (Base 50)    
Moisture  
Dew Point 55 °F    
Average Humidity 80    
Maximum Humidity 96    
Minimum Humidity 42    
Precipitation  
Precipitation 0.04 in - - ()
Sea Level Pressure  
Sea Level Pressure 29.63 in    
Wind  
Wind Speed 12 mph (West)    
Max Wind Speed 22 mph    
Max Gust Speed 34 mph    
Visibility 9 miles    
Events Rain , Thunderstorm    
Averages and records for this station are not official NWS values.
T = Trace of Precipitation, MM = Missing Value Source: NWS Daily Summary

Daily Weather History Graph

Daily Weather History Graph

Search for Another Location

Airport or City:

Astronomy

Sep. 25, 2019 Rise Set
Actual Time 6:51 AM CDT 6:52 PM CDT
Civil Twilight 6:22 AM CDT 7:21 PM CDT
Nautical Twilight 5:48 AM CDT 7:55 PM CDT
Astronomical Twilight 5:13 AM CDT 8:30 PM CDT
Moon 2:31 AM CDT (9/25) 5:36 PM CDT (9/25)
Length of Visible Light 12h 59m
Length of Day
12h 01m
Waning Crescent, 14% of the Moon is Illuminated
Sep 25
Waning Crescent
Sep 28
New
Oct 5
First Quarter
Oct 13
Full
Oct 21
Last Quarter

Hourly Weather History & Observations

Time (CDT) Temp. Dew Point Humidity Pressure Visibility Wind Dir Wind Speed Gust Speed Precip Events Conditions
12:10 AM 64.9 °F 61.0 °F 87% 29.55 in 10.0 mi SSW 16.1 mph 25.3 mph 0.02 in Rain , Thunderstorm Light Rain
12:25 AM 64.9 °F 60.1 °F 84% 29.54 in 10.0 mi SSW 13.8 mph 25.3 mph 0.02 in   Overcast
12:47 AM 64.0 °F 61.0 °F 90% 29.57 in 10.0 mi SSW 12.7 mph - 0.02 in   Overcast
12:54 AM 64.0 °F 61.0 °F 90% 29.56 in 10.0 mi SSW 11.5 mph 25.3 mph 0.02 in   Overcast
1:04 AM 64.0 °F 61.0 °F 90% 29.57 in 10.0 mi SSW 13.8 mph 26.5 mph N/A Thunderstorm Overcast
1:14 AM 64.0 °F 62.1 °F 93% 29.57 in 10.0 mi SW 12.7 mph - N/A   Overcast
1:22 AM 64.0 °F 62.1 °F 93% 29.56 in 10.0 mi WSW 10.4 mph - N/A   Overcast
1:29 AM 64.0 °F 62.1 °F 93% 29.56 in 10.0 mi SW 13.8 mph - N/A   Overcast
1:38 AM 64.0 °F 62.1 °F 93% 29.56 in 6.0 mi SW 12.7 mph - 0.02 in Rain Light Rain
1:54 AM 64.0 °F 62.1 °F 93% 29.55 in 10.0 mi WSW 12.7 mph - 0.02 in   Overcast
2:17 AM 64.9 °F 62.1 °F 90% 29.56 in 10.0 mi WSW 12.7 mph 23.0 mph N/A   Overcast
2:54 AM 64.0 °F 62.1 °F 93% 29.54 in 10.0 mi West 9.2 mph - N/A   Overcast
3:11 AM 64.0 °F 62.1 °F 93% 29.56 in 10.0 mi West 10.4 mph - N/A   Overcast
3:44 AM 64.0 °F 62.1 °F 93% 29.55 in 9.0 mi West 8.1 mph - N/A   Overcast
3:54 AM 64.0 °F 61.0 °F 90% 29.54 in 8.0 mi West 8.1 mph - N/A   Overcast
4:11 AM 63.0 °F 61.0 °F 93% 29.56 in 7.0 mi West 8.1 mph - N/A   Overcast
4:54 AM 62.1 °F 60.1 °F 93% 29.56 in 6.0 mi West 6.9 mph - N/A   Mostly Cloudy
5:54 AM 62.1 °F 60.1 °F 93% 29.57 in 7.0 mi West 6.9 mph - N/A   Mostly Cloudy
6:06 AM 61.0 °F 59.0 °F 93% 29.58 in 8.0 mi WSW 6.9 mph - N/A   Scattered Clouds
6:54 AM 60.1 °F 59.0 °F 96% 29.59 in 6.0 mi WSW 9.2 mph - N/A   Scattered Clouds
7:01 AM 61.0 °F 59.0 °F 93% 29.60 in 6.0 mi West 10.4 mph - N/A   Mostly Cloudy
7:12 AM 60.1 °F 57.9 °F 93% 29.60 in 6.0 mi West 11.5 mph - N/A   Mostly Cloudy
7:47 AM 60.1 °F 57.9 °F 93% 29.61 in 9.0 mi West 9.2 mph - N/A   Mostly Cloudy
7:54 AM 60.1 °F 57.9 °F 93% 29.61 in 10.0 mi West 10.4 mph - N/A   Scattered Clouds
8:54 AM 62.1 °F 57.0 °F 84% 29.62 in 10.0 mi West 13.8 mph 25.3 mph N/A   Scattered Clouds
9:07 AM 62.1 °F 55.9 °F 80% 29.64 in 10.0 mi West 16.1 mph 24.2 mph N/A   Mostly Cloudy
9:54 AM 62.1 °F 55.9 °F 80% 29.66 in 10.0 mi WNW 11.5 mph 24.2 mph N/A   Overcast
10:54 AM 64.0 °F 54.0 °F 70% 29.69 in 10.0 mi WNW 16.1 mph 24.2 mph N/A   Scattered Clouds
11:54 AM 64.9 °F 50.0 °F 58% 29.70 in 10.0 mi WNW 21.9 mph 29.9 mph N/A   Partly Cloudy
12:54 PM 66.9 °F 48.9 °F 52% 29.71 in 10.0 mi WNW 18.4 mph 28.8 mph N/A   Partly Cloudy
1:54 PM 66.0 °F 46.0 °F 48% 29.70 in 10.0 mi WNW 16.1 mph 29.9 mph N/A   Partly Cloudy
2:54 PM 66.9 °F 43.0 °F 42% 29.70 in 10.0 mi WNW 17.3 mph 34.5 mph N/A   Partly Cloudy
3:54 PM 64.9 °F 43.0 °F 45% 29.71 in 10.0 mi WNW 17.3 mph 25.3 mph N/A   Partly Cloudy
4:54 PM 64.9 °F 45.0 °F 48% 29.72 in 10.0 mi West 13.8 mph - N/A   Clear
5:54 PM 63.0 °F 45.0 °F 52% 29.73 in 10.0 mi West 11.5 mph - N/A   Partly Cloudy
6:54 PM 60.1 °F 46.0 °F 60% 29.74 in 10.0 mi West 12.7 mph 19.6 mph N/A   Partly Cloudy
7:54 PM 57.0 °F 46.0 °F 67% 29.75 in 10.0 mi West 6.9 mph - N/A   Clear
8:54 PM 55.9 °F 46.0 °F 69% 29.77 in 10.0 mi West 8.1 mph - N/A   Clear
9:54 PM 57.0 °F 46.0 °F 67% 29.79 in 10.0 mi West 10.4 mph - N/A   Mostly Cloudy
10:54 PM 53.1 °F 44.1 °F 71% 29.82 in 10.0 mi NW 9.2 mph - N/A   Scattered Clouds
11:54 PM 50.0 °F 43.0 °F 77% 29.82 in 10.0 mi West 6.9 mph - N/A   Clear